Theta_e
314 314 314 314 313 312 312 313 313 312 312 312 311 312 312 311 309 309 310 312 313 310 310 312 313 313 314 312 313 308 309 309 315 330 330 329 330 327 327 330 328 329 334 332 331
315 314 313 314 313 312 310 312 313 312 312 311 311 312 312 310 309 312 320 314 314 314 312 313 314 312 310 311 312 311 310 311 315 329 330 328 328 328 330 332 332 332 330 331 330
315 314 313 313 313 312 311 311 312 312 312 311 311 312 310 309 314 321 317 316 315 315 315 313 313 312 311 312 312 312 312 314 325 324 326 327 328 328 329 332 329 333 332 330 329
316 315 314 312 313 312 311 310 311 311 311 311 311 311 308 314 320 318 314 313 315 315 315 313 313 313 312 313 312 313 313 313 323 325 324 326 327 329 327 328 328 333 329 332 329
318 316 314 312 313 312 311 312 312 311 311 311 311 309 309 316 319 320 314 314 314 314 313 313 316 317 314 312 312 312 313 313 320 322 324 326 327 324 323 325 328 332 333 331 328
320 317 315 313 313 312 311 312 312 311 310 311 311 308 314 317 321 318 313 313 313 312 315 314 316 314 314 315 315 316 314 314 322 323 324 326 326 323 323 325 329 331 333 331 328
322 319 315 314 312 312 311 312 312 311 310 310 310 309 312 309 320 319 314 311 312 314 314 315 316 316 317 317 317 318 315 316 319 320 322 322 324 326 322 325 331 331 332 333 329
322 321 316 314 312 312 311 312 312 311 310 309 308 311 312 311 318 316 315 316 313 315 314 316 317 316 317 316 317 317 313 315 319 321 321 322 328 327 324 325 326 327 331 333 332
320 322 317 315 313 311 311 312 312 310 310 309 311 313 318 317 319 319 318 317 317 315 315 316 316 316 316 317 316 314 316 320 318 319 322 320 329 328 325 326 326 328 331 328 330
319 321 318 315 313 312 311 313 313 312 312 310 311 312 314 318 320 319 318 319 318 316 317 316 312 315 314 315 317 316 320 320 319 318 321 321 324 328 325 323 324 323 323 324 327
318 320 319 315 313 311 311 313 314 316 311 312 311 313 314 316 318 319 319 317 317 317 316 316 314 316 316 315 318 318 318 318 317 317 316 315 323 325 323 324 325 327 326 324 326
316 320 319 315 313 311 311 312 315 314 318 317 317 316 316 317 315 317 317 315 317 318 317 316 316 316 316 319 319 318 318 317 317 315 314 314 325 324 323 325 325 327 327 325 323
314 320 318 315 313 310 311 312 315 313 318 322 321 321 321 316 316 318 315 314 317 318 317 316 317 319 320 319 319 318 319 320 318 313 315 317 319 322 324 324 324 324 325 325 324
315 318 317 315 310 313 313 318 321 313 322 323 324 322 315 315 316 318 316 315 315 316 317 318 318 319 320 320 319 318 318 320 320 317 316 315 320 321 321 320 326 324 324 320 324
314 317 318 314 313 315 319 318 315 319 318 318 323 317 313 317 317 317 317 315 315 319 318 319 320 319 321 320 319 319 317 319 321 319 318 321 321 320 322 318 324 324 325 322 323
311 316 317 313 312 311 314 317 322 322 323 324 318 317 317 317 318 316 316 316 315 317 317 317 318 319 319 320 319 319 319 320 318 319 321 322 319 318 322 321 319 319 325 324 323
308 316 316 314 312 316 319 321 329 326 319 322 318 318 318 318 318 316 316 316 314 316 319 319 318 320 321 319 319 320 319 321 320 320 320 323 322 319 319 320 320 319 319 323 322
306 314 315 315 314 316 322 327 326 322 323 320 318 318 318 317 317 316 315 314 314 315 316 319 320 320 319 319 318 320 317 319 321 323 322 323 325 323 320 319 319 318 319 321 324
305 313 313 315 313 313 322 327 321 324 319 318 318 319 318 317 316 315 315 315 314 313 315 320 321 321 320 320 320 318 318 318 322 322 325 323 322 314 321 321 321 320 319 322 324
308 312 313 315 314 312 322 320 323 322 321 318 319 317 317 317 316 314 315 314 315 313 317 320 322 322 321 320 320 319 317 319 320 325 327 318 319 319 323 323 322 323 319 319 324
308 313 313 314 312 314 323 318 320 321 321 323 321 319 317 316 316 316 316 316 314 315 319 321 319 321 322 321 321 319 317 316 318 317 319 321 319 313 318 319 319 320 320 319 324
309 314 313 313 314 314 320 319 315 320 321 324 322 321 316 317 318 317 318 318 320 320 320 320 320 319 322 320 318 319 318 316 315 316 316 315 319 316 313 315 318 320 320 321 324
310 313 313 313 316 313 316 318 317 318 321 323 322 320 319 319 319 318 320 321 321 320 320 319 319 317 320 319 320 318 316 318 317 313 317 315 317 314 312 313 314 315 319 322 322
311 313 314 314 313 311 315 318 318 316 319 322 323 322 320 319 320 322 324 323 322 320 319 319 317 315 318 318 319 321 321 317 318 315 316 315 317 316 313 312 312 313 316 319 320
310 314 313 314 315 313 313 316 317 317 321 321 322 323 321 318 320 320 324 323 322 317 320 318 319 318 318 321 321 320 320 320 317 316 316 316 316 314 314 312 312 312 313 315 319
310 316 314 316 314 314 313 315 315 315 318 321 323 322 318 317 318 321 324 322 321 321 319 319 318 321 320 318 319 320 318 318 318 318 316 315 315 313 310 310 311 311 312 311 311
306 311 315 315 316 316 317 314 314 314 317 317 321 321 319 318 319 320 321 321 321 320 320 319 316 315 319 314 314 315 315 316 317 317 317 316 314 312 312 313 312 310 312 311 312
Wind_Speed
15 15 18 17 18 18 17 18 21 21 21 22 21 21 24 24 28 21 8 3 4 7 6 3 2 3 3 1 5 5 2 3 2 4 4 7 6 4 5 4 5 2 4 18 24
15 15 17 16 17 19 19 19 20 21 21 20 20 20 22 24 25 11 6 8 9 6 5 5 1 4 1 3 1 4 3 7 5 1 3 3 9 6 1 4 6 13 22 27 25
14 15 16 16 17 19 21 19 20 21 20 19 18 19 22 17 5 6 10 6 10 8 3 4 1 2 2 3 3 4 5 4 3 4 8 5 3 4 3 4 3 20 21 21 27
15 15 15 16 18 19 20 22 21 21 20 18 17 18 15 5 2 2 5 6 10 10 8 2 2 3 3 3 3 2 8 6 7 7 4 6 7 5 5 5 10 18 19 23 21
15 15 15 16 17 19 20 22 22 22 19 16 16 16 5 3 8 7 2 9 10 11 7 4 2 1 2 4 2 6 10 9 12 10 4 8 4 3 5 6 9 17 17 21 22
16 15 15 16 17 19 20 22 22 20 16 14 14 9 3 3 3 3 6 10 7 11 6 6 4 4 5 4 2 5 9 1 11 10 4 7 3 4 2 5 8 6 11 20 21
17 15 15 16 16 18 20 22 21 18 15 12 11 4 1 13 1 2 4 7 9 11 3 7 6 3 2 7 5 7 4 7 5 8 5 9 3 5 10 9 12 7 9 18 24
16 15 15 16 17 18 19 22 20 17 13 11 8 2 7 6 8 16 14 9 11 11 14 13 9 4 2 4 6 4 4 4 5 8 4 4 5 4 13 11 9 8 6 12 16
17 15 15 16 16 17 19 21 19 13 10 8 2 1 10 11 10 16 18 13 17 16 14 17 4 1 6 3 5 5 0 2 6 7 4 4 2 6 7 10 9 8 9 11 14
18 15 14 15 16 17 19 20 13 10 2 2 4 4 8 3 9 12 13 17 6 4 2 1 4 3 3 4 2 1 4 2 4 6 5 5 3 7 5 10 11 9 7 12 18
18 15 14 14 14 15 18 6 2 1 3 8 5 4 5 12 10 11 15 11 3 4 3 1 4 3 6 8 4 5 2 5 5 4 4 8 10 9 9 10 8 7 10 9 16
16 14 13 12 13 14 12 1 4 2 8 15 18 11 23 8 6 5 14 5 5 5 2 3 4 6 7 1 5 4 6 8 7 9 4 7 9 3 4 14 13 12 11 17 11
17 15 13 9 11 12 7 9 8 13 3 7 7 6 6 11 8 7 9 5 5 5 7 6 6 1 4 5 3 5 3 4 5 4 6 8 4 3 4 4 1 6 11 15 16
17 15 15 8 6 4 6 16 10 11 2 6 6 7 6 6 5 9 10 8 3 9 7 4 2 5 2 4 3 6 12 6 2 4 4 2 3 5 5 7 12 14 8 9 8
18 17 16 13 3 4 2 11 7 2 3 5 6 4 9 8 3 3 14 3 10 3 6 6 4 4 4 6 4 10 7 2 1 5 4 0 5 7 0 8 12 13 17 15 13
19 18 18 15 14 15 16 16 1 4 7 4 7 7 6 6 4 3 4 5 4 5 1 4 2 5 7 7 8 3 2 5 5 4 3 7 5 5 5 14 9 7 17 18 16
20 21 25 17 5 5 4 2 3 4 5 5 6 8 8 7 5 6 3 4 5 3 2 1 4 3 2 0 3 4 5 3 3 4 4 4 2 8 8 11 15 10 9 17 15
22 19 27 26 16 3 3 2 10 8 8 4 7 10 9 7 8 6 5 6 2 4 3 4 4 3 4 4 3 5 7 5 4 3 4 3 5 6 7 9 11 6 8 7 12
20 21 17 30 22 6 3 9 6 7 5 4 2 8 6 6 7 7 9 8 9 9 7 5 4 5 5 3 5 3 2 3 6 3 1 3 5 8 7 7 2 7 8 8 8
22 11 12 28 23 7 6 15 7 9 6 2 7 7 9 9 8 8 8 7 7 10 7 6 3 2 4 4 1 3 3 3 3 4 2 4 5 4 2 3 5 4 8 8 8
22 6 20 25 20 3 12 11 16 21 8 4 5 3 9 8 10 7 8 6 8 6 8 5 3 5 3 4 9 4 3 1 4 4 4 1 5 5 5 7 8 11 9 9 11
12 8 31 36 8 7 16 12 9 21 7 8 5 10 9 10 8 8 10 7 6 9 9 8 5 4 9 7 7 2 6 5 5 4 0 4 5 4 8 5 6 8 8 8 10
6 6 28 31 11 14 6 18 17 13 6 5 5 7 3 5 5 4 4 3 7 5 8 8 2 2 6 3 3 6 6 4 5 4 6 5 5 4 4 6 6 8 9 9 11
5 9 6 8 9 20 19 15 20 14 18 12 8 5 2 3 2 6 4 3 3 7 1 7 4 7 7 7 4 3 3 5 5 4 4 6 5 7 7 9 7 6 4 8 7
6 7 8 14 17 15 20 14 21 14 12 10 10 16 8 5 2 3 5 2 2 4 4 4 5 4 4 2 2 0 2 1 5 5 6 9 8 9 6 5 6 6 5 6 5
7 4 7 3 16 20 19 23 25 20 13 18 12 12 8 6 8 8 8 6 6 2 5 2 3 1 4 3 1 3 5 4 4 3 5 5 6 1 7 6 8 7 8 8 6
20 7 6 9 19 19 20 24 26 19 14 26 10 12 5 9 6 6 6 6 9 7 3 4 6 3 5 4 5 5 7 6 5 3 5 5 4 5 7 8 5 6 8 8 8
Wind_Direction
315 314 321 318 323 322 325 325 324 325 332 330 328 327 324 329 320 314 249 220 111 168 193 165 156 140 127 260 188 144 57 267 262 179 208 199 88 312 309 87 49 53 89 125 127
311 312 322 316 321 321 322 324 323 324 328 328 331 328 325 332 324 269 318 227 176 153 173 175 132 139 126 234 279 119 159 235 212 132 158 277 140 171 228 104 77 92 108 119 119
306 309 319 313 320 320 320 323 323 323 325 328 331 328 331 330 313 251 328 281 187 185 202 170 336 143 222 180 212 200 206 216 214 167 183 192 230 124 124 353 182 136 131 129 110
300 304 310 314 315 319 320 324 324 323 324 325 329 333 341 349 250 298 339 132 155 178 201 173 199 157 235 207 201 235 241 212 180 176 205 167 132 123 160 216 99 145 140 127 120
294 299 304 311 311 316 319 321 325 319 319 325 326 343 2 358 253 310 208 136 147 173 185 184 208 174 239 250 358 208 254 244 172 178 217 83 43 25 65 120 114 130 137 136 150
288 294 298 305 309 314 319 320 324 317 322 321 327 357 14 305 300 257 175 157 179 187 199 198 229 258 261 264 203 289 250 203 165 166 199 143 126 21 16 115 112 157 140 150 165
277 288 293 299 305 312 316 319 320 315 318 316 327 5 287 237 172 183 195 198 197 205 199 233 240 256 292 319 333 295 207 76 119 165 156 98 38 229 167 153 150 154 151 159 168
265 280 288 294 301 309 314 317 316 313 312 310 323 3 251 256 303 252 226 241 224 234 244 273 303 274 271 306 350 26 46 107 245 147 159 136 188 229 148 153 163 158 166 151 156
256 274 283 289 299 306 312 315 313 304 306 300 321 66 267 303 253 247 220 217 218 235 258 279 314 288 359 54 2 2 155 163 170 143 118 100 171 242 158 160 157 160 174 151 156
251 262 274 283 297 305 311 314 303 304 343 231 267 333 271 253 244 236 232 227 197 190 299 63 45 33 26 61 235 331 247 284 173 225 119 137 191 188 153 138 141 147 153 154 163
241 245 264 277 294 306 318 335 28 18 209 209 194 262 272 331 301 241 245 178 134 90 196 203 76 218 229 212 230 288 26 325 311 252 112 188 173 185 166 146 134 154 152 145 168
236 233 250 267 287 300 308 220 225 315 295 230 247 244 260 272 309 293 166 136 140 202 184 35 259 220 235 256 355 12 7 314 287 259 133 145 168 171 196 171 169 172 176 175 162
227 222 232 251 284 294 263 253 276 312 285 283 202 202 221 158 221 251 156 159 181 184 208 159 231 80 11 293 340 324 262 278 245 63 40 94 58 202 195 175 161 256 210 182 178
223 216 216 223 266 284 259 346 330 177 315 271 195 246 182 175 268 233 200 166 189 202 219 225 258 179 225 304 75 305 273 217 291 78 157 155 203 256 201 226 196 210 223 234 198
228 208 212 202 174 203 195 351 38 128 350 247 173 190 164 159 225 234 212 121 219 177 128 246 199 159 192 233 238 256 275 214 220 83 87 296 100 251 22 213 213 210 208 219 232
223 212 199 205 235 239 307 310 136 56 251 270 150 176 136 177 248 310 157 184 173 169 215 232 291 130 209 232 245 267 69 54 41 79 36 292 139 283 216 228 246 183 207 215 223
219 217 198 202 190 192 318 73 191 198 305 202 174 164 173 181 233 180 222 192 166 97 284 56 208 263 142 3 346 95 56 351 12 22 213 273 129 231 230 242 235 219 186 208 195
220 216 206 214 201 246 116 130 220 220 240 317 165 167 175 178 221 197 178 182 259 112 152 173 338 324 352 69 334 233 149 155 219 190 249 284 228 248 236 253 233 191 153 140 165
216 217 202 214 214 225 118 213 198 224 206 220 135 151 210 197 184 177 187 202 198 168 172 153 228 287 169 132 119 326 145 170 103 10 31 240 262 304 2 358 124 114 132 155 176
207 190 201 208 209 180 201 225 220 238 7 301 180 176 181 205 170 176 199 202 211 178 147 207 163 235 297 57 137 134 232 54 14 135 252 284 296 246 344 274 258 206 187 177 175
205 194 173 183 164 208 213 214 229 262 299 291 217 234 205 178 191 183 207 239 201 166 123 137 125 298 347 227 194 337 310 90 121 141 167 195 270 224 220 227 224 240 212 194 184
206 198 165 166 173 220 220 193 236 255 261 267 279 223 206 183 186 193 199 207 152 147 159 192 136 173 211 248 195 179 241 165 123 237 139 151 269 240 228 214 221 239 221 202 188
198 177 170 163 191 218 210 211 233 248 210 236 257 210 193 159 127 139 171 192 195 116 152 187 161 58 347 13 282 218 206 186 115 91 193 139 260 287 293 269 184 210 218 204 195
187 172 177 197 215 197 198 202 216 237 248 263 276 307 232 160 188 152 124 292 96 138 175 108 141 163 183 198 178 205 249 184 129 118 186 214 243 271 264 241 233 185 189 218 207
211 195 168 197 204 208 188 194 216 227 212 207 249 236 246 177 83 143 115 302 48 124 124 121 158 161 196 186 160 224 285 3 169 205 159 237 203 245 234 233 215 218 118 86 171
194 199 150 209 192 195 188 207 208 212 234 216 242 256 195 169 175 202 133 192 182 172 132 47 185 200 193 84 45 216 272 271 236 192 238 260 247 299 37 56 56 56 99 112 87
225 283 172 202 184 186 201 196 215 205 216 238 221 236 214 213 150 185 152 162 152 141 117 111 134 118 233 5 17 353 232 221 245 212 185 204 217 105 58 54 41 60 60 62 55